Wind_Speed
87 91 92 92 92 94 95 91 87 84 82 82 81 73 74 64 59 65 72 77 69 65 64 66 65 68 68 71 68 68 69 68 68 66 67 63 59 60 63 58 56 53 57
77 81 85 89 92 93 94 91 89 85 81 84 84 75 77 67 61 65 72 66 72 61 72 64 59 60 59 60 62 62 64 68 67 65 66 65 62 62 64 63 63 65 65
69 71 79 86 91 91 90 89 87 84 83 86 82 76 75 71 64 59 75 78 78 83 74 71 66 62 60 58 56 58 60 65 62 63 58 66 62 65 65 65 64 64 64
68 67 71 78 84 86 87 90 87 84 86 84 79 78 75 71 65 62 80 88 90 88 84 73 79 62 62 65 59 57 61 61 62 52 50 59 67 67 66 66 66 66 68
65 67 66 68 71 73 81 87 84 84 83 79 81 78 76 71 67 61 73 92 94 92 89 84 72 74 72 73 73 78 67 66 67 67 65 63 63 63 69 71 73 75 72
63 62 61 63 66 68 72 76 79 79 80 78 76 76 75 74 64 62 68 74 90 98 90 88 87 85 78 75 76 69 67 66 68 67 70 73 70 77 79 79 74 75 77
58 58 59 59 60 65 68 70 71 70 74 76 75 74 73 71 66 63 67 70 78 85 92 95 89 87 86 88 80 84 76 71 71 75 77 73 80 81 80 74 78 80 79
59 58 56 54 54 58 61 64 67 66 70 73 73 72 71 70 70 63 64 71 76 82 81 88 93 69 72 85 76 72 76 82 85 84 82 81 82 80 76 76 78 78 79
53 58 56 53 50 54 58 61 61 65 67 66 68 71 69 71 69 65 68 69 74 76 83 83 83 79 79 79 77 79 84 86 83 86 85 81 83 87 85 87 88 86 88
40 45 47 51 54 55 55 52 54 56 59 61 69 71 69 72 70 68 70 75 83 86 92 86 86 93 93 93 91 91 92 94 89 88 83 86 86 89 94 88 91 94 88
27 31 34 39 47 53 53 52 53 54 55 58 65 66 67 66 70 71 75 80 89 93 88 92 88 95 90 97 95 97 98 97 97 97 89 92 93 96 98 94 90 97 97
23 24 26 35 42 44 48 52 56 58 60 65 66 64 55 62 61 68 76 82 89 96 97 102 102 92 91 94 92 98 102 98 94 100 98 95 101 97 101 103 101 99 99
17 23 26 27 29 31 42 47 53 59 61 64 62 60 59 56 60 64 62 71 83 98 101 111 109 108 105 100 99 104 99 100 104 105 109 104 105 108 106 108 103 103 104
12 25 17 16 25 34 38 47 51 54 62 66 63 69 71 69 72 72 72 70 74 83 95 110 112 107 100 105 107 103 102 103 103 103 103 102 106 106 106 106 105 105 105
13 20 9 22 18 23 33 38 45 57 60 59 52 51 55 64 72 74 82 83 82 87 90 92 97 103 108 109 111 108 105 105 106 105 105 107 115 116 113 114 116 116 116
14 9 15 15 15 25 29 27 43 54 59 63 67 68 70 71 74 78 83 87 92 96 95 104 109 112 108 107 107 113 115 112 113 114 116 116 115 112 110 113 121 117 116
22 19 17 15 21 26 29 31 36 49 59 65 61 67 69 70 71 77 81 88 94 100 108 108 107 114 117 115 115 120 116 116 112 113 115 115 120 121 114 112 112 117 116
17 17 15 16 14 14 16 25 35 48 54 65 68 68 73 74 80 87 91 92 93 97 101 108 115 119 121 124 122 118 116 116 120 122 123 121 124 123 122 118 116 115 111
16 14 14 15 17 15 17 20 22 26 55 56 66 77 75 81 88 88 91 94 98 109 111 112 115 124 125 126 129 131 132 128 124 128 129 127 122 118 121 122 123 125 121
15 15 15 15 17 18 23 26 27 29 33 39 41 51 61 62 77 96 100 105 107 116 114 118 129 130 131 136 140 139 139 140 140 139 138 136 133 133 135 127 126 122 121
13 16 17 21 24 27 32 35 39 39 42 47 53 61 65 70 75 78 86 95 108 119 129 133 135 135 142 146 146 146 144 144 145 145 146 144 142 141 136 137 136 135 138
23 26 29 34 38 41 45 48 51 55 59 62 66 71 76 77 79 84 91 96 106 111 116 125 137 146 152 154 154 157 159 158 156 153 153 154 155 153 148 150 150 149 140
31 33 37 40 45 49 52 55 59 62 67 72 76 80 85 90 89 88 92 98 117 120 123 128 125 133 138 141 142 146 145 149 144 146 152 158 157 154 154 153 147 146 146
44 46 49 54 59 61 64 66 71 73 79 83 87 93 96 96 97 95 92 91 95 102 114 122 127 135 138 141 145 144 143 143 144 139 136 139 142 145 151 154 154 153 154
56 58 61 64 68 71 74 77 81 83 89 91 97 100 99 95 92 90 86 82 80 79 81 85 88 95 103 111 118 124 128 132 136 134 134 128 126 128 126 132 144 151 151
63 65 66 71 75 78 82 85 89 93 97 101 103 103 98 92 87 82 78 74 70 69 68 71 73 76 80 85 89 92 97 103 110 114 121 124 126 123 123 125 126 125 126
Wind_Direction
248 246 247 246 244 243 243 245 247 243 244 247 248 250 249 245 245 243 237 241 241 238 236 240 243 245 244 245 247 251 254 257 259 259 261 265 264 268 267 267 267 267 275
245 246 246 243 244 242 244 244 244 244 242 245 247 245 246 245 242 242 238 234 236 236 239 238 238 239 240 252 251 252 253 256 259 261 261 263 263 265 264 266 272 275 272
243 241 241 240 240 242 242 245 244 243 242 242 245 243 243 244 245 239 228 229 236 235 235 238 241 245 245 241 248 248 252 253 255 260 262 262 263 262 266 267 268 270 267
240 235 234 237 238 240 241 242 242 243 243 243 243 241 241 243 243 236 226 231 234 236 240 238 243 240 241 244 250 250 254 255 256 255 271 268 262 264 266 269 266 265 268
237 237 232 231 235 236 238 240 239 240 241 239 241 241 241 243 242 237 230 231 235 236 239 247 251 243 248 248 250 256 261 260 256 255 254 250 250 260 261 262 265 268 271
235 238 236 233 231 232 233 236 237 236 237 238 239 240 241 243 242 238 232 233 237 236 239 243 246 249 250 247 250 248 259 254 255 254 254 253 260 262 266 266 266 265 267
239 238 237 234 232 232 234 234 236 236 236 237 239 240 243 245 246 239 233 235 237 237 240 242 242 247 252 253 256 254 251 253 251 251 253 257 263 261 268 264 267 268 273
228 231 233 233 230 230 231 233 233 233 233 235 238 239 241 245 247 242 236 234 233 232 235 241 248 241 245 255 258 255 255 255 256 259 258 258 258 260 262 262 268 269 270
227 228 229 226 226 225 225 227 229 230 232 233 237 237 239 243 244 243 242 234 227 229 235 239 243 241 251 250 251 253 252 254 257 255 259 257 259 265 268 269 267 270 271
222 223 224 223 222 223 223 225 227 229 231 232 234 238 236 236 240 241 238 231 224 226 235 239 244 246 249 251 250 250 252 254 256 255 258 259 259 264 265 266 267 268 269
206 211 214 215 221 224 223 223 224 226 228 231 235 236 237 241 238 238 234 232 228 231 229 237 242 245 250 252 250 247 250 253 252 255 257 260 260 264 264 262 266 272 270
189 195 205 208 213 216 219 218 223 222 224 228 233 237 229 241 243 239 235 236 232 226 230 236 240 244 249 252 249 250 252 253 255 256 256 260 259 261 265 264 262 266 272
200 196 205 206 216 212 211 214 214 215 218 223 222 217 223 219 222 234 241 242 236 230 233 235 239 242 247 250 252 256 255 259 259 252 254 261 260 265 264 263 264 265 268
37 199 227 235 233 217 209 210 216 217 219 223 226 225 227 220 222 226 229 236 238 236 238 239 242 242 245 250 253 255 257 256 255 256 256 259 257 258 259 261 263 263 268
22 20 263 246 261 248 240 219 213 214 220 220 223 230 229 236 234 231 233 237 240 241 239 239 242 246 250 252 253 254 254 256 257 259 259 258 257 259 259 258 265 268 267
29 307 336 331 314 279 261 254 239 231 233 234 234 231 231 235 238 239 235 237 243 246 247 246 245 248 252 252 254 254 255 256 260 261 262 263 265 268 268 266 266 271 270
53 47 26 310 299 295 301 274 263 250 238 238 242 240 247 242 241 243 244 246 247 249 250 251 253 252 253 253 255 258 257 258 259 261 262 265 266 265 267 269 269 273 274
62 64 45 36 17 8 346 294 288 255 254 249 242 247 248 245 246 245 246 249 250 251 252 251 253 254 255 255 256 255 258 259 261 262 262 263 264 266 266 266 268 269 268
24 12 355 343 337 329 319 316 314 294 262 262 262 252 258 257 253 250 253 253 253 251 254 253 254 254 253 254 256 257 257 256 257 259 262 262 262 262 265 267 266 266 271
349 341 325 311 305 292 293 294 288 292 278 276 275 271 271 276 270 264 263 258 261 256 255 257 254 256 254 255 255 256 255 257 258 258 258 259 261 260 260 260 264 262 264
319 314 310 313 316 313 311 308 303 303 295 283 272 270 277 273 266 264 264 262 259 258 254 253 255 257 256 252 253 254 254 254 253 254 257 258 259 259 261 262 263 261 266
320 320 321 319 320 320 317 316 312 312 312 309 306 302 299 291 284 279 272 264 258 257 256 256 257 256 256 256 256 256 256 256 256 257 257 257 258 259 260 261 264 264 265
315 316 317 318 320 318 317 317 314 314 314 314 312 308 306 301 291 281 275 269 261 257 258 258 259 257 258 261 260 258 259 260 260 259 261 260 258 259 262 261 261 264 268
323 320 320 320 322 322 322 321 321 321 320 318 315 313 308 304 300 292 284 278 272 266 262 260 262 259 261 260 261 261 263 264 264 260 257 258 261 262 262 260 261 264 266
322 321 322 321 322 322 322 324 324 324 324 321 318 313 309 305 299 295 291 286 279 275 271 267 263 261 260 259 260 260 259 259 261 262 263 260 258 258 259 261 262 263 264
320 321 321 321 322 322 324 325 326 325 325 323 318 314 311 307 302 298 294 289 285 280 275 271 267 265 262 260 260 259 259 259 258 259 258 259 259 259 258 256 258 261 262
Height
10586 10595 10604 10615 10626 10633 10636 10643 10650 10657 10663 10669 10676 10685 10686 10695 10703 10705 10706 10712 10719 10724 10731 10738 10743 10748 10753 10759 10762 10765 10769 10770 10771 10773 10774 10776 10776 10774 10776 10777 10777 10777 10776
10566 10577 10585 10595 10601 10608 10613 10623 10630 10641 10648 10652 10660 10672 10674 10680 10689 10691 10696 10702 10708 10715 10718 10727 10733 10737 10741 10746 10750 10754 10755 10757 10760 10761 10761 10762 10763 10761 10762 10765 10765 10764 10763
10544 10556 10563 10571 10577 10586 10599 10603 10612 10622 10629 10636 10647 10657 10662 10667 10675 10681 10687 10694 10696 10699 10707 10714 10720 10725 10729 10734 10737 10740 10742 10744 10747 10749 10748 10748 10750 10748 10751 10753 10754 10752 10752
10522 10533 10542 10549 10560 10572 10582 10584 10594 10605 10612 10622 10632 10637 10645 10653 10661 10671 10677 10680 10683 10688 10695 10703 10708 10711 10716 10721 10724 10727 10729 10732 10734 10734 10737 10736 10736 10736 10738 10739 10739 10739 10739
10509 10518 10527 10537 10547 10558 10564 10568 10581 10590 10598 10610 10617 10625 10633 10641 10649 10658 10663 10667 10670 10677 10685 10689 10693 10696 10700 10707 10712 10715 10716 10717 10720 10718 10720 10718 10720 10719 10722 10724 10725 10725 10726
10498 10508 10519 10527 10536 10543 10548 10556 10566 10577 10585 10595 10604 10611 10618 10625 10638 10645 10648 10653 10655 10664 10672 10676 10678 10680 10686 10689 10699 10702 10702 10702 10704 10704 10702 10702 10704 10704 10705 10707 10708 10710 10713
10489 10500 10509 10515 10524 10531 10538 10546 10556 10569 10575 10583 10591 10598 10605 10612 10623 10630 10634 10638 10643 10649 10656 10660 10663 10666 10673 10672 10679 10686 10687 10689 10689 10687 10687 10687 10688 10691 10692 10693 10692 10694 10697
10474 10483 10492 10503 10511 10519 10527 10534 10544 10554 10561 10571 10579 10587 10594 10600 10605 10615 10616 10623 10630 10636 10641 10645 10649 10656 10659 10659 10663 10665 10668 10671 10671 10668 10670 10670 10673 10674 10677 10678 10678 10680 10681
10466 10475 10484 10495 10503 10508 10514 10524 10534 10540 10549 10561 10567 10572 10581 10584 10593 10599 10603 10609 10616 10624 10626 10631 10637 10642 10643 10647 10647 10648 10648 10649 10651 10651 10652 10655 10658 10659 10661 10662 10661 10663 10665
10458 10466 10475 10483 10489 10495 10507 10519 10527 10534 10540 10549 10552 10557 10567 10573 10578 10585 10589 10595 10602 10608 10611 10618 10619 10621 10622 10624 10627 10629 10628 10632 10635 10636 10636 10639 10642 10642 10646 10645 10644 10646 10647
10455 10461 10468 10476 10482 10492 10504 10512 10517 10524 10532 10537 10539 10546 10552 10558 10564 10569 10575 10580 10587 10592 10597 10601 10599 10602 10601 10603 10606 10609 10610 10612 10619 10621 10623 10626 10627 10625 10627 10629 10627 10627 10629
10455 10461 10465 10471 10477 10485 10494 10503 10509 10516 10521 10524 10529 10535 10541 10544 10549 10553 10559 10563 10571 10576 10580 10582 10584 10584 10583 10585 10586 10588 10595 10597 10602 10605 10608 10609 10608 10607 10609 10610 10611 10611 10609
10460 10464 10468 10472 10477 10484 10490 10494 10500 10504 10510 10514 10522 10528 10532 10536 10541 10544 10547 10551 10556 10561 10563 10562 10563 10565 10565 10567 10567 10566 10569 10572 10578 10581 10585 10586 10586 10587 10588 10590 10590 10592 10587
10464 10467 10470 10476 10479 10482 10484 10489 10494 10500 10502 10506 10513 10519 10524 10526 10528 10531 10533 10536 10539 10542 10544 10546 10548 10548 10548 10545 10544 10544 10546 10547 10552 10556 10560 10561 10561 10563 10565 10568 10566 10566 10567
10472 10473 10476 10477 10481 10486 10488 10491 10495 10496 10498 10503 10508 10512 10515 10518 10519 10522 10524 10523 10525 10527 10528 10528 10529 10529 10527 10525 10523 10523 10523 10521 10524 10527 10530 10533 10538 10538 10541 10547 10538 10540 10547
10475 10479 10481 10483 10486 10487 10489 10494 10496 10495 10497 10499 10499 10501 10502 10506 10507 10508 10505 10507 10508 10508 10507 10507 10505 10505 10503 10501 10500 10501 10500 10499 10500 10504 10505 10509 10510 10508 10511 10516 10517 10518 10521
10479 10480 10481 10483 10485 10486 10488 10490 10492 10491 10492 10493 10495 10494 10494 10494 10493 10491 10490 10490 10489 10487 10485 10483 10481 10480 10478 10477 10478 10479 10478 10479 10480 10479 10481 10482 10481 10486 10488 10491 10490 10492 10490
10483 10484 10486 10486 10486 10485 10485 10486 10485 10486 10487 10486 10484 10483 10482 10480 10478 10475 10473 10470 10467 10465 10462 10458 10456 10454 10450 10448 10449 10449 10450 10448 10447 10450 10453 10453 10455 10457 10461 10463 10465 10468 10471
10484 10484 10483 10483 10483 10484 10484 10483 10482 10481 10482 10478 10475 10472 10469 10464 10459 10455 10451 10447 10442 10438 10434 10430 10425 10423 10420 10415 10415 10413 10416 10417 10417 10418 10419 10422 10424 10423 10427 10433 10437 10444 10447
10482 10481 10480 10481 10481 10479 10477 10474 10472 10470 10467 10463 10459 10453 10450 10442 10433 10431 10422 10415 10410 10405 10399 10394 10389 10384 10383 10378 10376 10374 10378 10382 10381 10383 10386 10389 10391 10391 10397 10403 10405 10413 10415
10481 10479 10478 10476 10473 10471 10467 10463 10459 10454 10449 10445 10438 10431 10422 10414 10404 10396 10386 10376 10366 10360 10354 10349 10341 10338 10335 10332 10329 10329 10333 10337 10341 10344 10350 10351 10355 10357 10365 10368 10375 10378 10385
10470 10467 10463 10460 10456 10450 10444 10438 10432 10426 10418 10410 10402 10391 10378 10369 10358 10349 10337 10326 10319 10310 10302 10298 10292 10286 10283 10283 10283 10283 10287 10291 10301 10309 10312 10317 10317 10321 10332 10338 10338 10342 10352
10462 10457 10452 10446 10442 10436 10428 10422 10414 10406 10396 10384 10371 10357 10341 10326 10312 10304 10292 10279 10267 10259 10253 10247 10243 10240 10235 10231 10231 10237 10241 10249 10256 10267 10272 10276 10279 10287 10298 10308 10309 10311 10318
10447 10442 10437 10430 10422 10414 10404 10396 10387 10375 10363 10350 10336 10320 10304 10285 10266 10248 10239 10232 10220 10212 10208 10206 10200 10199 10193 10191 10191 10194 10197 10199 10206 10221 10233 10239 10241 10248 10262 10269 10277 10287 10293
10430 10424 10417 10409 10400 10391 10380 10369 10357 10346 10333 10318 10300 10281 10261 10242 10223 10205 10191 10183 10176 10172 10165 10159 10158 10156 10153 10151 10154 10158 10162 10167 10169 10175 10184 10196 10204 10213 10223 10230 10238 10249 10257
10414 10406 10399 10389 10380 10369 10356 10344 10328 10314 10298 10281 10261 10241 10222 10202 10183 10170 10156 10145 10141 10135 10131 10125 10122 10120 10118 10118 10121 10125 10128 10131 10135 10143 10153 10158 10165 10178 10186 10195 10205 10215 10223